Regional Weather Roundup
Issued by NWS

Home | Current Version | Previous Version | Text Only | Print | Product List | Glossary On
Versions: 1 2 3 4 5 6 7 8 9 10 11 12 13 14 15 16 17 18 19 20 21 22 23 24 25 26 27 28 29 30 31 32 33 34 35 36 37 38 39 40 41 42 43 44 45 46 47 48 49 50
000
ASUS42 KFFC 230003
RWRGA
WEATHER ROUNDUP FOR GEORGIA
NATIONAL WEATHER SERVICE PEACHTREE CITY GA
800 PM EDT SUN OCT 22 2017

NOTE: "FAIR" INDICATES FEW OR NO CLOUDS BELOW 12,000 FEET WITH NO
SIGNIFICANT WEATHER AND/OR OBSTRUCTIONS TO VISIBILITY.

* = USE WITH CAUTION. THE STATIONS MARKED WITH AN ASTERISK MAY NOT
REPORT WEATHER SUCH AS PRECIPITATION, FOG, OR THUNDER AND ARE NOT
QUALITY CONTROLLED BY NWS.

THE REMARK "TC" DENOTES TEMPERATURE READING IN DEGREES CELSIUS.

GAZ001>058-230100-
NORTH GEORGIA

CITY           SKY/WX    TMP DP  RH WIND       PRES   REMARKS
ATLANTA        MOCLDY    71  66  84 E16G22    30.13S
6HR MIN TEMP:  71; 6HR MAX TEMP:  79;

ATHENS         CLOUDY    68  66  93 E9        30.19R
6HR MIN TEMP:  68; 6HR MAX TEMP:  82; 6HR PCP: TRACE;

CHAMBLEE       MOCLDY    70  63  78 E8        30.14S
6HR MIN TEMP:  70; 6HR MAX TEMP:  78;

PEACHTREE CITY MOCLDY    71  66  84 SE15G24   30.13R
6HR MIN TEMP:  71; 6HR MAX TEMP:  82;

ROME           MOCLDY    73  65  75 E5        30.08F
6HR MIN TEMP:  73; 6HR MAX TEMP:  80;

WEST ATLANTA   PTCLDY    73  65  75 E8G18     30.12R
6HR MIN TEMP:  73; 6HR MAX TEMP:  79;

GAINESVILLE    CLOUDY    69  62  78 E9        30.20R
6HR MIN TEMP:  69; 6HR MAX TEMP:  76;

CARTERSVILLE   MOCLDY    72  63  73 E8        30.10F
6HR MIN TEMP:  72; 6HR MAX TEMP:  79;



CITY           SKY/WX    TMP DP  RH WIND       PRES   REMARKS
DALTON*        MOCLDY    70  63  78 CALM      30.11F
LAWRENCEVILLE* MOCLDY    69  64  84 E14G22    30.17F
MARIETTA       PTCLDY    71  63  75 E16G24    30.13R
KENNESAW*      MOCLDY    72  63  73 SE15      30.13S
CANTON*        MOCLDY    72  63  73 E6        30.15F
$$

GAZ059>098-102>109-230100-
CENTRAL GEORGIA

CITY           SKY/WX    TMP DP  RH WIND       PRES   REMARKS
AUGUSTA-BUSH   CLOUDY    72  68  87 NE6       30.18S
6HR MIN TEMP:  72; 6HR MAX TEMP:  83; 6HR PCP:  0.01;

AUGUSTA-DANIEL CLOUDY    71  67  87 NE7       30.19S
6HR MIN TEMP:  70; 6HR MAX TEMP:  82; 6HR PCP:  0.01;

COLUMBUS       CLOUDY    78  65  63 E7        30.06R
6HR MIN TEMP:  77; 6HR MAX TEMP:  84;

MACON          MOCLDY    71  68  90 E7        30.13R
6HR MIN TEMP:  71; 6HR MAX TEMP:  84;

ROBINS AFB     CLEAR     71  67  88 CALM      30.12R


CITY           SKY/WX    TMP DP  RH WIND       PRES   REMARKS
LAGRANGE*      CLOUDY    75  68  78 E6        30.09R
SYLVANIA*      CLOUDY    73  73  98 E7        30.17S
MILLEDGEVILLE* CLOUDY    72  70  94 E7        30.16S
$$

GAZ099>101-110>166-230100-
SOUTH GEORGIA

CITY           SKY/WX    TMP DP  RH WIND       PRES   REMARKS
SAVANNAH       LGT RAIN  73  71  93 SE6       30.16R
6HR MIN TEMP:  73; 6HR MAX TEMP:  83; 6HR PCP: TRACE;

VALDOSTA       CLOUDY    78  71  79 E5        30.08R
6HR MIN TEMP:  78; 6HR MAX TEMP:  87;

ALMA           CLOUDY    76  69  79 E8        30.10F
6HR MIN TEMP:  76; 6HR MAX TEMP:  87;

ST SIMONS      CLOUDY    75  72  90 E10       30.12
6HR MIN TEMP:  74; 6HR MAX TEMP:  84; 6HR PCP:  0.23;

FT STEWART     CLOUDY    74  70  87 E8        30.12S
ALBANY         PTCLDY    79  66  64 E5        30.07S
HUNTER AFB     HVY RAIN  73  72  94 E5        30.14R
MOODY AFB      CLOUDY    76  69  79 E8        30.08R
BRUNSWICK      LGT RAIN  72  68  88 E6        30.13F


CITY           SKY/WX    TMP DP  RH WIND       PRES   REMARKS
BAINBRIDGE*    CLOUDY    79  72  78 SE5       30.04F
MOULTRIE*      RAIN      79  68  69 SE5       30.07S
VIDALIA*       RAIN      73  72  94 SE8G20    30.14R
WAYCROSS*      MOCLDY    76  73  90 E10       30.10S
DOUGLAS*       PTCLDY    75  68  78 E6        30.10S
$$



USA.gov is the U.S. government's official web portal to all federal, state and local government web resources and services.